User: anonymous
Location: Whispering Pines Observatory
(39.4020°N, 104.7430°W)
Time: 02:25:42
(UTC-06:00)
Language:

MOS 1 Rocket - Orbit

View from above orbital plane
View from above orbital plane
View from above satellite
View from above satellite

Ground track
Ground track

The orbit data is extracted from the following two-line orbital elements,

1 17528U 87018B   14115.19848334  .00000432  00000-0  10626-3 0  3518
2 17528 097.4679 190.4961 0152649 298.5453 077.8609 14.49923859433326
Epoch (UTC): 25 April 2014 04:45:48
Eccentricity: 0.0152649
inclination: 97.4679°
perigee height: 617 km
apogee height: 834 km
right ascension of ascending node: 190.4961°
argument of perigee: 298.5453°
revolutions per day: 14.49923859
mean anomaly at epoch: 77.8609°
orbit number at epoch: 43332

The dashed part of the orbit path shows where the satellite is in the earth's shadow,  

DLR